Theta_e
349 349 350 350 350 350 350 352 352 352 352 352 353 353 353 353 354 355 355 356 356 357 357 356 355 356 355 356 355 353 353 353 352 353 353 353 353 353 352 351 352 351 351 352 350 350 351 351 352 353 354 353 354 356 355 355 356 356 356 355 354 353 350
349 349 349 349 350 350 350 352 353 353 351 351 352 352 352 354 354 355 355 355 356 356 357 356 355 356 355 355 355 354 354 354 353 353 354 354 352 352 352 351 351 351 350 350 350 349 350 350 351 352 353 353 353 355 354 354 356 356 356 355 354 354 351
348 348 349 349 350 350 351 352 352 352 351 351 351 351 352 353 353 354 355 355 355 355 356 356 355 355 355 355 356 354 354 354 355 354 354 354 352 352 352 352 352 351 351 350 350 350 349 350 351 351 352 352 353 354 354 353 355 356 356 356 355 354 353
347 348 348 349 350 351 351 351 351 351 351 350 350 350 352 353 352 353 354 355 355 356 356 356 355 356 356 356 356 356 355 355 355 355 355 354 353 353 354 353 353 353 353 351 350 351 351 350 351 351 351 352 352 353 353 353 354 356 356 356 355 354 354
347 347 347 348 349 350 350 349 350 351 351 350 350 350 351 351 352 353 353 354 355 355 355 355 355 356 356 356 356 356 355 354 355 355 355 355 354 354 354 354 353 353 353 351 351 351 351 351 352 352 352 352 352 352 352 353 354 355 356 356 355 354 354
344 345 347 347 347 348 349 348 349 350 350 349 349 350 350 350 351 352 353 353 354 355 355 356 356 356 356 356 356 356 356 355 355 355 355 355 355 355 354 353 353 353 352 352 352 352 352 352 352 352 352 351 352 353 352 352 354 356 356 356 355 355 354
343 345 346 347 345 346 347 346 348 349 349 349 349 349 349 349 350 351 352 353 354 354 356 355 355 356 356 355 356 356 356 356 355 355 355 355 355 355 354 353 353 353 353 352 352 352 352 352 352 352 352 352 352 353 351 351 354 355 356 356 355 355 354
345 345 344 345 345 344 345 346 347 348 348 349 348 349 348 348 349 350 351 353 353 354 355 354 355 355 354 355 356 356 356 356 356 355 355 356 356 356 355 355 353 352 352 353 352 352 352 352 353 352 352 352 352 352 351 350 353 355 356 356 355 355 354
344 347 344 342 342 342 344 345 347 349 350 350 348 348 348 348 349 349 350 351 352 353 353 353 355 354 354 354 355 355 356 356 357 356 356 356 356 356 356 355 354 353 352 353 353 353 352 352 353 352 352 352 352 352 351 351 353 355 356 356 355 355 354
346 349 347 344 341 342 343 344 348 351 352 352 350 349 348 348 348 348 349 350 350 352 353 352 354 354 354 354 355 355 356 357 357 357 356 357 357 357 356 356 355 354 353 353 353 354 352 352 353 352 352 352 352 352 352 352 353 355 356 355 355 355 354
347 351 351 347 345 345 344 344 349 353 353 353 351 350 349 348 348 348 348 350 349 351 352 352 353 354 354 354 355 356 356 357 357 357 356 357 356 356 356 356 356 355 354 354 354 354 353 352 352 353 353 352 351 351 351 352 353 354 355 355 355 354 354
346 352 355 352 349 349 348 349 352 353 354 353 351 350 349 348 348 348 348 349 349 350 351 351 352 353 354 355 355 355 356 357 356 357 357 356 356 356 356 356 356 356 355 354 354 355 354 353 353 353 353 352 351 351 350 351 353 354 354 354 354 354 353
345 350 352 353 352 352 353 354 353 353 353 353 351 350 350 349 348 348 349 349 348 349 351 351 352 353 354 354 354 356 357 357 356 357 357 357 357 357 356 356 356 356 356 356 355 355 355 355 354 353 353 352 352 351 351 351 353 353 353 353 353 354 353
343 345 348 351 352 355 357 355 353 353 353 352 351 350 349 349 348 348 348 349 349 349 350 352 353 353 354 354 354 356 356 356 356 356 357 357 357 357 357 357 357 356 356 356 356 356 356 356 356 354 353 353 352 352 352 352 353 353 353 353 353 353 352
340 339 344 348 351 354 357 356 354 354 353 351 351 351 350 349 348 348 348 349 350 349 350 352 352 352 353 354 355 355 354 354 356 356 356 357 357 357 357 357 357 357 357 357 356 356 356 356 356 356 355 354 353 353 353 353 353 353 353 353 352 352 352
339 337 340 346 350 353 354 355 355 354 354 353 352 351 350 349 348 348 348 349 349 349 350 351 350 351 354 355 354 352 352 353 355 356 356 357 357 357 357 357 357 357 357 357 357 356 356 356 357 357 356 355 354 354 354 354 353 353 353 352 352 351 351
338 340 341 343 348 350 352 353 354 354 355 354 352 352 350 348 349 348 348 348 348 349 350 350 350 351 353 354 352 351 352 353 354 356 356 356 357 357 357 357 357 357 358 357 357 357 357 357 357 357 357 357 356 355 355 354 353 353 352 352 352 351 351
346 345 342 342 345 347 349 350 351 353 353 350 350 351 349 348 349 349 349 349 348 349 350 350 352 352 352 352 352 352 353 354 355 355 356 356 357 357 357 357 358 358 358 358 358 358 358 357 358 358 357 357 357 357 356 355 354 353 353 352 351 351 350
355 349 343 342 342 343 345 346 347 350 350 349 349 349 348 348 349 349 349 348 348 349 350 350 351 352 351 352 353 353 354 354 355 355 356 356 356 357 357 357 358 359 358 359 358 358 358 358 358 358 358 358 358 357 357 356 354 353 352 352 352 351 351
357 353 350 348 345 341 342 345 346 348 349 349 348 346 346 347 348 348 348 348 348 349 349 350 350 351 352 352 353 353 354 355 356 356 357 357 356 357 358 357 358 358 358 359 358 359 359 358 358 358 358 358 357 357 357 357 355 354 353 352 352 351 350
357 357 356 356 354 351 349 348 347 348 349 348 346 345 346 347 346 347 348 349 349 348 349 349 350 351 352 353 354 354 354 356 356 357 358 358 358 358 358 358 359 358 358 359 359 359 359 358 359 359 358 358 358 357 357 357 356 354 353 352 352 352 351
356 355 355 355 355 354 354 352 348 347 347 348 346 346 346 346 346 347 348 348 349 350 351 351 352 353 354 355 355 355 356 357 358 358 359 359 359 359 358 359 359 359 359 359 359 360 360 359 359 359 358 358 358 357 357 357 356 355 354 353 352 352 350
352 352 352 351 351 353 356 356 353 348 347 348 347 346 347 347 347 348 348 349 350 351 351 353 355 355 354 355 356 356 357 357 357 359 359 359 360 360 359 359 359 360 359 359 359 359 359 360 359 359 359 358 358 358 358 357 357 355 354 353 353 352 351
349 350 349 349 350 352 355 357 354 347 345 347 347 347 348 347 347 349 351 351 350 350 352 354 356 355 353 355 356 356 356 355 355 357 359 360 360 360 360 360 360 360 360 359 359 359 359 360 360 359 360 359 358 359 358 357 357 356 355 354 353 352 351
349 348 349 350 351 351 353 356 354 348 345 349 350 350 348 348 348 350 352 352 350 351 353 355 355 353 353 354 355 355 355 354 355 356 358 359 360 360 360 361 361 361 360 359 359 360 360 360 360 360 360 359 359 358 358 358 358 356 355 355 353 353 352
348 346 348 351 352 352 353 356 356 354 354 355 355 352 349 350 351 351 353 354 353 353 355 355 353 352 352 353 354 354 354 354 355 356 358 359 359 359 360 361 361 361 360 359 359 360 360 360 360 361 360 360 359 358 357 358 358 357 355 355 354 353 352
347 347 348 350 352 353 354 354 355 355 354 355 354 352 351 353 354 355 356 356 356 356 356 354 352 352 353 353 355 356 355 355 355 356 358 359 359 359 359 360 361 361 360 360 360 360 360 360 360 360 360 360 359 359 358 358 358 357 356 355 354 354 352
346 347 349 350 350 352 353 353 353 352 352 353 353 353 352 354 356 358 358 359 359 358 356 354 352 352 352 352 354 356 356 357 357 357 358 360 360 360 359 360 360 361 361 361 361 361 361 361 361 360 360 360 359 359 359 358 358 357 356 355 354 354 353
346 347 348 349 349 350 351 351 350 351 351 352 353 354 354 355 358 359 359 360 359 355 354 354 354 353 353 353 355 356 358 359 359 358 359 361 361 361 361 361 361 362 362 362 361 362 361 361 361 361 360 360 360 359 359 358 358 357 356 355 354 354 353
346 346 347 349 349 349 350 349 348 349 349 350 352 354 355 357 359 358 357 357 356 355 355 355 353 353 355 355 355 357 358 359 359 359 361 361 362 361 362 362 362 362 363 362 362 362 361 361 361 361 360 360 360 360 359 359 358 357 355 355 354 354 353
345 346 347 347 348 348 348 347 347 347 347 349 350 351 353 355 356 355 354 355 356 359 360 359 357 355 355 355 356 357 356 357 359 359 360 362 362 362 363 363 363 363 363 363 362 362 362 362 361 361 361 360 360 360 359 359 358 356 355 354 354 354 354
344 345 346 346 347 347 347 347 347 346 346 347 348 349 350 351 352 352 352 353 356 359 361 362 362 360 358 358 357 356 356 357 357 357 359 360 361 362 363 363 363 364 363 363 362 362 362 362 361 362 361 360 360 360 360 359 357 355 354 354 354 354 353
343 344 345 346 346 346 347 347 347 346 346 346 347 348 348 348 348 349 349 351 353 356 358 360 362 362 362 361 360 359 358 357 356 356 357 358 359 360 362 362 363 363 363 363 362 362 362 362 361 361 361 361 361 360 360 359 356 353 352 353 353 353 353
343 344 345 345 345 346 347 347 347 346 346 346 346 347 347 347 347 347 347 348 350 352 354 355 357 358 359 360 361 360 360 359 358 357 357 357 357 357 359 360 361 362 362 363 363 363 362 362 362 361 361 361 361 361 360 356 352 350 351 352 353 353 351
344 344 344 345 345 345 346 347 346 346 346 346 346 346 346 346 345 345 346 346 347 349 350 351 351 352 352 353 354 354 354 356 358 358 358 358 358 358 358 358 358 360 361 361 362 362 362 362 362 362 361 361 361 361 360 355 351 351 352 353 353 353 350
343 344 345 345 344 344 345 346 345 345 345 345 345 345 345 344 344 344 344 344 345 347 348 348 349 349 348 348 348 347 347 349 350 351 351 352 351 352 352 350 350 353 355 357 358 359 360 361 361 361 361 361 361 361 360 357 355 354 352 352 353 353 351
343 343 344 344 344 344 344 344 344 345 344 344 344 344 344 344 344 343 343 343 344 344 345 346 347 346 345 344 343 342 343 344 343 343 344 344 344 345 345 345 343 342 342 344 346 349 352 356 358 360 360 360 360 361 359 358 356 353 349 349 352 353 351
341 341 341 342 343 343 343 343 344 343 343 343 343 343 343 343 343 343 343 343 343 343 344 344 344 344 344 343 342 342 342 342 342 342 342 343 344 344 344 345 345 342 338 336 335 336 340 344 349 352 354 355 357 359 359 357 355 352 348 348 351 352 350
Wind_Speed
18 19 19 17 17 18 18 18 19 22 24 25 27 30 31 31 30 29 28 31 33 31 32 35 35 35 36 38 39 42 42 41 41 39 36 35 35 34 35 35 34 34 34 33 33 33 32 31 30 30 29 28 26 23 22 22 21 22 21 20 20 19 18
16 17 18 17 17 19 19 19 19 22 24 26 28 30 31 31 32 32 30 33 37 35 34 37 37 37 39 39 39 42 43 41 41 40 36 35 38 37 36 36 35 36 36 35 35 34 33 32 31 31 30 30 29 26 25 24 23 23 23 21 21 20 20
15 16 17 18 18 19 19 18 19 23 26 27 29 30 30 32 35 37 34 33 37 36 34 38 40 39 39 40 39 42 44 42 40 40 38 37 39 38 36 36 36 36 36 36 36 35 34 33 32 32 31 31 30 28 27 27 25 24 24 23 22 22 21
14 16 17 19 19 18 18 17 19 24 28 29 31 33 33 36 38 39 38 36 36 36 37 40 42 40 39 40 39 39 42 43 42 41 39 38 39 38 35 34 35 35 34 36 36 35 34 34 33 33 32 31 31 30 30 29 27 26 25 24 23 23 22
14 15 15 16 18 17 17 18 20 25 29 31 33 33 34 37 36 36 37 37 36 38 40 40 38 37 38 39 39 39 42 45 44 42 40 38 38 38 37 36 35 35 36 37 36 36 35 34 33 33 33 33 32 31 31 30 29 29 27 26 25 24 24
13 14 14 15 17 18 19 21 23 28 32 32 33 33 33 34 33 34 36 36 36 36 36 35 34 35 38 40 38 37 40 43 43 43 41 40 39 37 38 39 37 36 37 37 37 36 36 35 34 34 34 34 33 32 31 31 31 30 29 28 27 26 26
12 13 14 15 16 18 20 21 24 29 33 32 32 31 31 31 32 34 35 35 37 35 34 35 36 36 39 39 36 36 39 41 43 44 43 40 39 38 38 38 39 39 38 38 38 37 36 36 36 35 35 34 33 33 33 33 33 32 31 30 29 29 28
11 12 14 16 17 18 18 19 21 25 28 29 28 28 30 31 31 33 34 34 36 34 34 36 36 38 42 41 39 40 41 40 40 42 41 38 36 36 36 37 40 41 40 39 39 39 38 37 36 36 35 35 34 35 35 34 34 34 33 32 31 30 29
9 9 11 14 15 15 16 16 17 20 21 24 26 26 29 30 30 32 34 34 34 35 36 37 36 39 45 45 42 42 40 37 37 39 40 37 35 34 35 35 38 41 42 41 39 39 40 39 37 37 37 36 36 36 36 36 35 35 35 34 33 32 31
4 5 7 10 12 12 13 13 13 14 14 18 23 24 26 28 29 31 33 33 34 36 37 38 35 36 42 44 41 40 38 36 36 36 37 36 34 34 34 33 34 39 42 42 38 38 41 41 39 38 38 37 37 37 38 37 37 36 36 36 35 34 33
3 5 6 8 10 10 12 13 13 13 13 16 21 23 26 27 28 30 32 33 35 35 36 37 34 32 37 40 38 36 36 37 37 36 36 36 34 34 35 33 31 34 39 41 39 38 40 41 40 39 38 38 39 39 39 39 38 38 37 37 36 35 34
4 5 7 9 10 10 12 13 13 14 14 15 19 23 26 28 29 30 31 32 34 34 34 35 34 32 35 37 36 34 36 37 37 36 36 36 35 34 34 34 32 32 35 39 39 37 37 40 41 40 40 40 40 40 41 40 39 39 38 38 37 36 35
4 6 7 8 9 9 11 11 13 16 15 15 19 23 25 27 29 29 29 31 33 32 32 33 33 32 33 36 36 34 35 39 40 39 37 36 36 35 34 35 34 33 33 36 38 37 35 35 38 41 41 41 41 42 42 41 41 40 39 39 38 37 36
5 6 7 7 9 10 11 12 14 15 14 14 18 22 24 26 28 30 31 30 31 31 31 31 32 33 33 34 33 33 37 42 42 40 37 35 36 37 35 34 35 34 33 34 35 36 35 33 34 38 41 41 42 42 42 42 41 40 40 39 38 37 36
6 7 7 8 9 10 11 12 13 13 14 14 16 19 23 25 28 31 30 28 28 30 30 30 34 36 33 32 36 40 43 45 41 38 38 36 35 38 37 34 33 33 33 34 35 34 34 33 32 34 38 41 42 42 41 41 42 41 40 40 39 38 37
7 7 8 9 10 11 12 12 12 12 13 13 14 18 22 24 27 30 31 29 30 31 30 31 37 40 34 33 42 46 45 44 40 38 39 38 37 38 39 35 33 33 33 34 35 34 34 34 32 31 34 38 41 40 40 41 43 42 41 40 40 40 38
6 6 7 8 8 9 10 10 10 11 12 14 16 19 22 26 28 29 29 29 31 32 32 33 38 40 38 39 45 45 41 41 39 38 39 40 38 38 38 37 35 34 34 35 35 34 34 35 33 31 31 33 36 38 40 42 43 41 41 41 40 39 39
7 6 5 5 6 8 9 11 11 12 14 15 17 19 24 27 27 26 27 29 31 31 31 32 35 38 41 42 40 40 39 39 39 38 39 40 39 38 39 38 35 33 34 34 34 34 34 34 34 33 31 30 32 34 37 41 42 41 41 42 41 40 39
6 6 6 5 6 8 10 11 12 13 14 15 17 22 27 27 25 27 31 33 32 29 29 31 35 37 40 39 36 38 39 38 38 39 38 40 40 38 38 38 36 35 34 33 33 33 33 34 33 33 33 32 32 33 33 36 40 41 41 42 42 42 39
5 5 6 6 7 8 9 9 10 12 14 17 21 25 25 25 26 29 29 27 29 31 31 34 35 36 38 38 37 39 39 37 39 39 38 39 39 36 37 37 36 36 34 32 32 32 33 35 34 34 35 34 34 34 32 33 36 40 42 42 42 42 41
4 4 5 5 6 7 7 8 9 10 13 17 21 20 20 22 25 24 21 22 27 31 33 34 35 34 34 34 35 38 38 38 39 36 34 34 34 34 35 35 35 35 33 31 31 32 34 35 35 36 36 35 35 35 33 33 35 38 41 43 43 42 41
3 3 4 5 7 8 8 9 10 11 11 14 17 18 18 21 22 21 20 22 25 26 28 29 28 28 28 29 31 34 35 35 35 32 30 30 31 32 33 33 34 34 32 31 31 31 32 34 35 36 35 35 36 36 34 33 34 37 40 43 43 41 41
3 3 4 5 7 8 9 10 11 11 11 13 17 18 19 20 20 20 20 21 22 23 24 24 23 25 29 30 30 32 34 35 34 31 29 29 30 32 33 34 35 34 33 33 32 31 32 34 35 35 35 37 38 37 34 34 36 37 38 41 42 41 42
2 2 3 5 7 7 9 10 10 10 10 12 16 18 19 20 21 20 19 20 22 24 23 22 24 29 33 33 32 34 38 41 40 36 32 31 33 34 34 34 33 33 34 35 33 32 33 33 33 33 34 37 39 38 35 34 37 39 39 40 43 42 42
1 2 3 4 6 6 8 7 4 4 7 9 11 15 20 22 22 22 21 21 23 23 23 25 30 35 38 38 38 39 40 41 41 38 34 32 33 33 32 32 32 30 32 35 34 33 32 31 31 32 33 35 38 39 37 35 37 40 39 41 43 42 43
2 3 3 5 6 6 7 7 7 6 5 2 2 8 16 19 19 20 18 17 19 20 20 23 28 31 34 34 34 34 36 37 37 37 35 34 36 35 32 31 31 30 31 34 33 30 30 31 32 32 32 34 36 37 37 36 38 39 40 42 43 43 45
3 3 4 6 8 8 9 11 12 12 10 7 4 3 11 15 15 15 13 13 14 14 14 16 18 20 22 24 23 24 28 32 35 37 36 33 34 35 33 30 29 28 29 30 29 28 30 32 32 32 33 32 32 34 36 37 39 41 43 43 44 45 46
5 5 6 8 10 10 11 12 14 14 13 10 8 3 6 11 11 9 9 9 8 6 7 11 14 18 21 24 24 24 26 30 33 35 33 28 27 30 31 29 27 26 26 26 27 29 31 31 30 31 32 31 31 33 35 36 39 43 45 45 45 46 46
6 7 8 9 11 11 11 12 13 14 14 12 11 9 7 9 8 8 8 6 4 2 2 5 9 14 19 22 24 24 25 26 28 29 27 24 24 27 28 26 25 25 25 25 27 29 30 30 30 30 30 30 30 31 34 35 38 43 46 46 45 46 47
7 7 8 9 10 11 12 12 13 13 13 13 14 13 12 12 12 12 10 7 4 3 3 2 5 10 14 18 20 21 21 21 23 24 23 22 23 25 25 24 24 24 25 26 28 29 30 31 30 30 31 31 30 30 32 34 37 41 45 46 45 45 46
8 8 8 10 11 12 12 12 13 14 14 14 15 15 14 14 14 14 11 7 5 5 4 2 4 6 10 13 15 17 18 17 18 20 20 20 21 23 23 23 23 24 25 26 28 30 31 32 31 31 32 31 32 33 33 34 37 40 42 44 44 45 46
9 9 9 10 11 12 12 12 13 13 14 14 15 15 15 14 14 14 11 8 8 8 6 5 4 4 4 6 8 11 13 14 15 17 18 19 20 21 22 23 23 24 24 25 28 31 32 31 31 30 30 31 34 34 31 31 36 39 42 44 45 46 47
10 10 9 10 12 12 12 12 11 12 13 13 13 14 14 14 13 12 11 10 10 10 9 8 7 6 5 3 2 3 5 7 10 11 13 15 18 20 21 22 23 24 24 26 30 31 30 30 28 27 29 32 31 27 26 30 35 39 42 46 48 50 51
10 10 10 11 12 13 13 12 11 12 13 13 13 14 14 14 14 12 11 11 10 10 10 11 10 9 8 6 4 3 1 1 4 5 7 10 12 15 17 18 20 23 25 29 31 30 30 30 29 30 34 35 30 26 27 32 37 42 48 52 55 55 53
11 11 12 13 14 15 15 14 14 15 15 14 14 15 15 16 14 13 12 12 11 10 10 10 9 10 9 8 7 6 4 2 1 2 4 6 7 10 12 14 17 20 23 27 30 31 33 34 33 35 38 39 35 31 31 33 40 49 55 57 58 59 57
12 13 15 16 17 18 18 18 18 18 17 17 16 16 17 17 16 14 13 12 11 10 10 9 9 10 9 8 8 7 6 5 5 4 4 3 4 5 8 11 14 17 22 28 31 34 36 39 41 42 41 39 38 38 40 42 48 53 55 56 58 60 59
12 13 15 16 17 18 19 20 20 20 20 20 20 19 18 18 18 17 15 14 13 12 12 11 11 11 11 10 9 8 8 7 7 7 6 4 3 3 5 8 9 10 13 19 26 31 36 40 45 49 50 46 43 44 47 51 52 50 51 56 59 60 59
14 14 14 15 16 17 18 19 19 20 19 20 20 20 19 19 19 18 17 16 15 15 15 14 13 12 11 11 10 10 10 10 9 8 6 3 2 2 3 5 6 8 12 14 15 19 25 32 39 45 51 53 52 49 47 48 49 49 51 55 58 59 59
Wind_Direction
200 202 203 201 199 200 201 198 195 198 199 196 198 199 198 197 195 195 195 197 200 202 200 201 201 201 204 206 209 212 213 214 215 215 214 216 218 218 219 219 220 222 224 226 230 232 233 234 234 235 235 237 239 238 241 243 242 243 242 239 236 235 234
199 203 203 201 200 202 203 198 194 197 199 198 198 198 198 196 193 195 196 197 201 203 202 202 203 203 206 207 209 212 214 214 215 216 214 216 219 220 221 221 220 222 225 227 230 231 233 235 236 237 236 237 239 239 242 243 242 241 241 238 234 233 233
201 203 200 200 201 201 201 196 194 198 200 198 197 197 198 196 196 197 196 196 200 202 201 203 205 205 206 207 208 211 214 214 214 215 214 216 219 220 221 222 222 224 226 228 230 231 233 234 236 237 237 238 238 239 242 242 241 241 240 238 234 233 233
203 201 199 200 200 199 198 196 197 201 201 199 198 197 197 198 198 199 199 198 198 199 201 204 205 205 205 206 207 210 212 214 214 215 215 216 219 219 217 219 221 222 224 228 230 231 232 233 235 236 237 238 238 239 241 241 239 239 239 237 233 232 233
203 199 198 200 201 202 199 198 200 201 203 202 199 198 198 198 197 197 199 199 199 201 203 204 203 203 205 206 207 209 212 214 215 216 215 216 218 217 216 218 219 221 224 228 229 230 231 232 232 234 236 236 237 237 239 239 238 238 238 236 233 231 231
201 196 198 200 202 203 200 202 203 202 203 203 200 198 197 197 196 197 198 198 199 201 201 201 201 201 205 207 207 208 211 214 215 216 217 217 217 217 218 219 220 221 224 227 229 230 231 231 231 232 234 234 234 233 235 236 235 236 236 234 233 231 229
199 191 197 200 201 202 201 202 204 204 204 203 201 199 196 195 195 196 198 197 198 198 196 198 200 202 205 206 206 208 210 212 215 217 217 218 218 218 219 220 221 223 225 227 229 230 230 230 231 232 233 233 232 231 233 234 233 234 234 233 232 231 230
205 191 198 201 202 203 201 201 203 203 201 199 199 197 194 196 195 195 198 198 198 198 198 200 200 202 206 206 206 209 210 211 213 216 217 216 216 217 218 219 222 224 225 226 229 230 230 230 231 231 232 231 231 232 233 234 233 232 233 232 231 230 229
208 191 203 206 206 205 203 201 200 199 195 192 196 195 193 195 195 195 197 197 197 197 199 201 199 202 206 206 207 209 209 209 210 212 214 213 213 214 215 217 221 223 224 225 227 230 230 231 230 231 231 231 231 232 233 233 232 231 232 232 231 229 229
215 191 204 207 206 205 205 201 193 194 194 194 197 195 191 192 194 196 197 196 197 198 199 200 198 200 203 204 206 207 206 207 208 209 210 211 212 213 213 214 217 221 224 224 225 227 230 231 230 230 231 230 231 232 232 232 230 230 231 232 232 231 230
205 198 203 203 202 199 202 200 194 195 197 197 197 194 192 193 193 195 197 196 198 199 199 198 197 197 198 201 203 203 204 206 207 208 209 210 212 213 213 213 213 217 221 222 222 224 228 230 229 228 229 229 231 232 232 232 230 229 229 231 232 231 231
199 201 203 203 198 195 202 203 199 198 196 195 194 192 194 197 195 196 197 196 198 200 197 196 196 195 195 197 199 201 203 205 206 207 208 209 210 211 211 212 211 213 216 219 220 221 224 228 228 227 228 229 231 232 233 232 230 229 229 230 231 231 230
213 207 208 204 198 197 203 205 203 200 197 194 192 190 193 195 196 196 195 196 199 199 195 194 193 191 191 195 198 199 201 203 205 206 206 207 208 209 209 210 211 212 213 215 217 218 220 223 226 227 228 229 230 232 233 232 230 229 229 229 230 229 228
230 221 213 204 204 203 203 207 207 202 197 194 192 191 192 194 195 196 196 197 198 197 195 191 188 188 192 195 197 199 202 205 206 206 205 205 206 208 208 209 211 211 211 212 214 216 218 219 222 226 228 229 230 231 232 231 230 229 228 228 228 228 228
232 231 221 209 210 209 207 211 208 202 201 196 191 191 192 195 197 197 198 196 194 196 197 191 190 193 194 194 198 204 207 208 207 205 205 204 206 209 209 209 210 211 211 212 214 215 217 218 219 222 225 227 228 229 230 230 229 228 227 226 226 227 227
223 224 223 218 216 214 213 213 206 202 201 197 195 195 194 196 197 197 197 195 193 196 196 194 196 198 196 199 205 208 210 209 207 206 206 206 208 211 211 211 212 212 212 214 215 215 216 217 217 217 221 224 226 227 227 228 229 229 228 226 226 226 226
244 232 227 226 227 225 223 219 207 199 198 198 200 198 197 199 198 197 197 195 194 196 195 194 197 198 199 205 208 208 208 208 207 207 207 209 210 211 211 212 212 213 214 215 215 215 216 218 217 216 218 220 222 224 226 228 230 229 228 228 227 226 225
274 273 266 250 244 238 231 226 213 202 202 202 199 198 199 200 197 195 195 194 194 194 192 192 195 199 203 207 206 206 206 205 206 207 207 208 209 209 210 211 212 212 213 213 213 213 215 217 217 217 218 218 220 222 225 228 231 229 228 229 228 226 224
274 286 286 273 260 248 235 230 219 210 207 202 197 199 201 199 195 195 197 197 193 189 188 192 196 200 205 205 203 204 205 204 204 206 207 208 208 208 209 210 211 212 212 213 213 212 214 216 217 218 219 218 220 222 223 226 230 229 228 229 229 227 225
261 282 287 281 271 262 249 239 228 217 212 207 205 204 201 198 199 201 201 197 192 190 193 197 199 201 204 203 203 204 204 204 205 206 207 207 206 206 207 209 212 214 214 214 213 212 214 216 217 219 220 219 221 223 223 225 228 229 228 228 229 228 225
252 275 290 292 288 282 272 256 240 225 214 211 209 203 195 195 199 200 197 193 191 195 199 200 201 203 203 201 202 204 203 204 205 205 205 204 203 205 207 210 212 213 213 213 213 213 214 215 216 218 219 220 222 224 226 226 227 227 227 227 227 227 225
254 277 290 296 297 294 288 277 261 242 221 207 203 199 195 194 193 191 189 190 192 195 198 199 201 202 201 200 202 204 204 204 205 204 204 202 202 205 207 209 211 211 209 211 213 215 215 215 217 217 218 220 222 223 225 228 227 226 225 225 225 224 223
255 279 293 296 296 295 294 287 272 253 228 202 195 195 192 187 184 183 182 185 190 193 194 197 198 198 200 201 202 203 204 205 205 203 202 201 202 206 208 210 211 210 208 210 213 215 215 216 217 217 217 220 221 220 221 225 226 224 222 222 221 220 219
238 284 310 311 308 309 310 300 274 246 223 202 194 192 187 181 179 178 178 182 188 190 192 195 197 199 202 204 204 204 205 207 207 205 202 202 205 208 209 210 212 210 209 211 214 217 218 218 218 218 217 218 220 218 217 221 223 221 219 219 218 217 217
127 29 359 352 349 344 337 326 293 215 196 194 192 189 186 182 178 180 183 185 188 189 191 197 200 202 204 207 207 207 207 207 208 207 206 207 209 209 210 211 212 211 211 214 217 219 220 220 220 220 218 219 221 219 216 219 222 219 217 217 216 214 215
93 44 23 23 22 24 26 30 48 68 83 97 162 187 186 180 178 184 186 184 187 192 197 203 206 208 210 211 211 210 208 207 208 209 209 210 211 210 209 209 211 211 212 215 218 220 222 223 224 224 222 222 224 222 219 219 221 220 217 215 214 212 212
98 60 44 39 36 49 60 58 59 60 51 32 23 182 184 179 177 182 181 179 188 199 204 209 214 214 215 215 213 211 209 210 211 213 213 214 214 213 212 212 213 214 214 215 217 219 223 224 227 229 229 226 226 226 224 222 221 221 218 215 214 212 209
105 74 62 54 46 54 65 65 63 60 51 37 33 67 168 173 168 165 164 167 177 192 205 214 217 215 214 213 211 210 210 212 214 215 215 216 215 214 215 216 216 216 215 215 217 222 225 226 229 233 235 232 229 229 228 226 223 221 218 214 213 212 209
99 74 67 64 56 58 64 66 63 58 51 45 43 57 107 133 125 115 118 111 94 108 175 212 218 215 214 213 212 212 213 215 217 217 216 217 215 214 217 217 216 216 215 214 216 222 227 228 228 232 235 234 231 229 228 227 225 222 218 213 212 212 211
98 84 76 72 70 69 67 68 68 62 56 52 51 59 81 98 98 94 91 80 68 93 119 156 202 208 212 213 214 217 218 220 221 219 219 220 218 218 220 219 217 218 218 217 219 224 229 231 228 228 230 231 229 226 223 223 224 222 218 213 210 211 212
100 95 88 83 84 84 79 75 74 71 65 61 60 63 71 84 93 91 84 77 75 81 87 121 175 193 206 212 216 220 222 223 224 223 223 223 220 220 222 220 220 222 221 220 222 224 228 230 228 226 227 227 226 225 220 216 218 217 214 212 212 212 212
98 95 93 90 90 89 88 84 79 76 73 67 65 67 69 75 84 85 81 75 74 74 78 93 115 137 174 200 213 221 223 226 229 228 226 225 223 223 224 222 222 224 221 220 224 226 228 230 228 226 226 227 229 227 218 210 211 211 209 209 210 211 212
97 93 88 88 89 88 89 86 80 77 76 72 68 68 69 70 73 75 72 66 63 67 71 75 82 90 89 97 146 206 222 230 236 236 233 230 230 231 231 229 228 229 227 227 229 230 230 231 231 228 228 230 230 225 214 208 207 205 203 203 205 207 210
98 93 87 85 87 88 86 83 79 77 75 71 68 67 67 68 68 67 65 64 65 70 72 71 74 76 73 71 76 73 73 229 244 249 246 242 241 242 241 240 238 239 238 237 235 235 235 234 232 231 231 232 227 214 206 206 203 200 200 200 200 202 203
100 96 92 89 87 86 84 82 80 77 72 68 65 65 65 66 66 66 66 67 73 81 86 88 89 86 80 76 72 63 52 43 324 270 263 264 265 262 261 261 257 255 255 251 245 241 239 238 236 235 235 234 227 212 201 201 205 208 207 203 200 199 197
98 95 92 89 88 87 84 83 82 79 75 71 67 66 66 64 63 64 64 64 69 76 85 93 92 85 79 73 66 57 51 45 35 26 19 356 329 311 304 297 285 275 270 267 262 255 249 245 243 240 238 236 230 221 214 214 218 218 211 203 200 199 196
89 89 88 87 88 86 83 81 80 78 76 74 70 68 66 62 60 59 60 62 67 72 79 86 87 84 80 75 70 67 65 61 54 50 48 38 22 354 323 314 312 306 294 283 276 271 266 259 254 249 244 239 236 233 227 224 223 218 208 201 199 198 197
76 75 76 76 76 76 75 74 73 72 72 71 69 66 62 58 54 51 53 56 62 67 71 73 75 75 73 70 69 69 69 68 66 65 62 51 25 351 315 307 310 328 344 340 315 291 278 273 270 265 257 249 244 237 227 220 218 214 205 199 198 197 196